This is the latest recevied weather packets stored in our database for station/object WA1DLZ. If no packets are shown the sender has not sent any weather packets the latest 10 day(s).
| Time | Temp. | Humidity | Pressure | Rain* | Wind** | Luminosity | Snow |
|---|---|---|---|---|---|---|---|
| 1777581003 | 7.22° C | 98% | 1006.2 hPa | 3.81 mm | - | - | - |
| 1777579503 | 7.22° C | 98% | 1006.5 hPa | 4.06 mm | - | - | - |
| 1777575604 | 7.22° C | 98% | 1007.1 hPa | 3.05 mm | - | - | - |
| 1777573804 | 7.22° C | 97% | 1007 hPa | 1.52 mm | - | - | - |
| 1777570204 | 7.78° C | 97% | 1007.6 hPa | 0.25 mm | - | - | - |
| 1777569303 | 7.78° C | 97% | 1007.7 hPa | 0.25 mm | - | - | - |
| 1777569004 | 8.33° C | 97% | 1007.6 hPa | 0.25 mm | - | - | - |
| 1777566903 | 8.33° C | 99% | 1007.8 hPa | 0 mm | - | - | - |
| 1777566003 | 7.78° C | 98% | 1008 hPa | 0 mm | - | - | - |
| 1777561204 | 7.22° C | 98% | 1008.7 hPa | 0 mm | - | - | - |
| 1777559704 | 7.22° C | 98% | 1008.9 hPa | 0.25 mm | - | - | - |
| 1777559104 | 7.22° C | 98% | 1008.8 hPa | 0.51 mm | - | - | - |
| 1777556704 | 7.22° C | 99% | 1009.3 hPa | 1.52 mm | - | - | - |
| 1777554904 | 6.67° C | 98% | 1009.3 hPa | 2.03 mm | - | - | - |
| 1777554303 | 6.67° C | 98% | 1009.4 hPa | 2.79 mm | - | - | - |
| 1777554004 | 6.67° C | 98% | 1009.5 hPa | 3.3 mm | - | - | - |
| 1777553704 | 6.67° C | 98% | 1009.5 hPa | 3.56 mm | - | - | - |
| 1777552804 | 6.67° C | 99% | 1009.4 hPa | 3.81 mm | - | - | - |
| 1777552504 | 6.67° C | 99% | 1009.5 hPa | 4.32 mm | - | - | - |
| 1777547104 | 6.11° C | 98% | 1009.5 hPa | 2.03 mm | - | - | - |
| 1777546204 | 6.11° C | 98% | 1009.4 hPa | 1.78 mm | - | - | - |
| 1777543503 | 6.11° C | 98% | 1009.4 hPa | 2.03 mm | - | - | - |
| 1777539304 | 5.56° C | 98% | 1009.8 hPa | 1.52 mm | - | - | - |
| 1777538704 | 5.56° C | 98% | 1009.9 hPa | 1.27 mm | - | - | - |
| 1777537204 | 5.56° C | 98% | 1009.8 hPa | 1.02 mm | - | - | - |
* Rain latest hour (hover to see other rain measurements)
** Current wind speed in m/s (hover to see current wind gust speed)